Overview Statistics Trail Chart Weather Telemetry Raw packets
 

This is the latest recevied weather packets stored in our database for station/object AI5BL. If no packets are shown the sender has not sent any weather packets the latest 10 day(s).

<< 66 67 68 69 70 71 72 >>
Time Temp. Humidity Pressure Rain* Wind** Luminosity Snow
1788192047 31.67° C 66% 1021.3 hPa 0 mm - 175 W/m² -
1788191741 31.67° C 66% 1021.4 hPa 0 mm - 715 W/m² -
1788191437 31.67° C 70% 1021.5 hPa 0 mm - 413 W/m² -
1788191138 31.67° C 67% 1021.4 hPa 0 mm - 112 W/m² -
1788190833 31.67° C 68% 1021.6 hPa 0 mm - 335 W/m² -
1788190532 32.22° C 65% 1021.8 hPa 0 mm - 139 W/m² -
1788190229 32.22° C 67% 1021.9 hPa 0 mm - 660 W/m² -
1788189924 31.11° C 70% 1021.9 hPa 0 mm - 616 W/m² -
1788189620 31.11° C 71% 1021.7 hPa 0 mm - 583 W/m² -
1788189319 30.56° C 70% 1021.6 hPa 0 mm - 597 W/m² -
1788189019 31.11° C 70% 1021.7 hPa 0 mm - 551 W/m² -
1788188714 30.56° C 70% 1021.6 hPa 0 mm - 522 W/m² -
1788188411 30° C 72% 1021.6 hPa 0 mm - 499 W/m² -
1788188105 30° C 72% 1021.5 hPa 0 mm - 459 W/m² -
1788187801 30° C 73% 1021.4 hPa 0 mm - 459 W/m² -
1788187496 30° C 75% 1021.5 hPa 0 mm - 447 W/m² -
1788187191 30.56° C 71% 1021.5 hPa 0 mm - 431 W/m² -
1788186886 30° C 74% 1021.5 hPa 0 mm - 416 W/m² -
1788186582 29.44° C 74% 1021.6 hPa 0 mm - 404 W/m² -
1788186272 30° C 75% 1021.6 hPa 0 mm - 358 W/m² -
1788185966 29.44° C 75% 1021.5 hPa 0 mm - 318 W/m² -
1788185660 29.44° C 75% 1021.6 hPa 0 mm - 344 W/m² -
1788185355 29.44° C 76% 1021.5 hPa 0 mm - 338 W/m² -
1788185050 28.89° C 77% 1021.4 hPa 0 mm - 312 W/m² -
1788184749 28.33° C 77% 1021.4 hPa 0 mm - 295 W/m² -

* Rain latest hour (hover to see other rain measurements)
** Current wind speed in m/s (hover to see current wind gust speed)